This is the latest recevied weather packets stored in our database for station/object KA9CBS. If no packets are shown the sender has not sent any weather packets the latest 10 day(s).
| Time | Temp. | Humidity | Pressure | Rain* | Wind** | Luminosity | Snow |
|---|---|---|---|---|---|---|---|
| 1777577697 | 17.22° C | 45% | 1018.6 hPa | 0 mm | - | 646 W/m² | - |
| 1777577395 | 16.67° C | 38% | 1018.8 hPa | 0 mm | - | 701 W/m² | - |
| 1777577090 | 16.67° C | 40% | 1018.7 hPa | 0 mm | - | 691 W/m² | - |
| 1777576788 | 16.67° C | 41% | 1018.7 hPa | 0 mm | - | 741 W/m² | - |
| 1777576487 | 16.67° C | 39% | 1018.7 hPa | 0 mm | - | 756 W/m² | - |
| 1777576183 | 16.67° C | 43% | 1018.9 hPa | 0 mm | - | 748 W/m² | - |
| 1777575879 | 16.67° C | 41% | 1019 hPa | 0 mm | - | 759 W/m² | - |
| 1777575576 | 17.22° C | 41% | 1019 hPa | 0 mm | - | 690 W/m² | - |
| 1777575272 | 16.67° C | 41% | 1019.1 hPa | 0 mm | - | 740 W/m² | - |
| 1777574968 | 17.22° C | 41% | 1019.1 hPa | 0 mm | - | 569 W/m² | - |
| 1777574664 | 17.22° C | 39% | 1019.2 hPa | 0 mm | - | 722 W/m² | - |
| 1777574361 | 18.33° C | 43% | 1019.2 hPa | 0 mm | - | 739 W/m² | - |
| 1777574056 | 17.78° C | 39% | 1019.2 hPa | 0 mm | - | 741 W/m² | - |
| 1777573751 | 17.78° C | 37% | 1019.2 hPa | 0 mm | - | 773 W/m² | - |
| 1777573448 | 17.78° C | 39% | 1019.4 hPa | 0 mm | - | 764 W/m² | - |
| 1777573143 | 16.67° C | 37% | 1019.4 hPa | 0 mm | - | 757 W/m² | - |
| 1777572840 | 16.11° C | 42% | 1019.6 hPa | 0 mm | - | 761 W/m² | - |
| 1777572536 | 16.11° C | 41% | 1019.5 hPa | 0 mm | - | 761 W/m² | - |
| 1777572231 | 16.11° C | 46% | 1019.6 hPa | 0 mm | - | 753 W/m² | - |
| 1777571927 | 16.67° C | 43% | 1019.8 hPa | 0 mm | - | 753 W/m² | - |
| 1777571622 | 16.11° C | 42% | 1019.8 hPa | 0 mm | - | 755 W/m² | - |
| 1777571320 | 16.11° C | 42% | 1019.6 hPa | 0 mm | - | 754 W/m² | - |
| 1777571015 | 16.11° C | 50% | 1019.6 hPa | 0 mm | - | 748 W/m² | - |
| 1777570712 | 15.56° C | 43% | 1019.7 hPa | 0 mm | - | 732 W/m² | - |
| 1777570409 | 16.67° C | 46% | 1019.6 hPa | 0 mm | - | 745 W/m² | - |
* Rain latest hour (hover to see other rain measurements)
** Current wind speed in m/s (hover to see current wind gust speed)